sat.trackr.live / text

‹ back to catalog

JILIN-1 GAOFEN 3D28

NORAD 52445 · 2022-048C

PAYLOAD ACTIVE UNKNOWN

§ Identity

Operator
Country
PRC
Launch date
2022-05-05
Launch site
TAISC
Launch vehicle
Mass (kg)
RCS (m²)

External: N2YO · Heavens-Above · Gunter

§ Orbital elements

Epoch: 2026-05-24T18:40:37.184160Z

Period
91.59 min
Inclination
97.5622°
Eccentricity
0.0003802
Mean motion
15.72226370 rev/d
Perigee alt
350.0 km
Apogee alt
355.1 km
Semi-major
6,730.7 km
B*
6.9945e-4
RAAN
256.7678°
Arg perigee
158.2992°
Mean anomaly
201.8433°
Rev number
22,584

§ Raw data

JILIN-1 GAOFEN 3D281 52445U 22048C   26144.77820815  .00092851  00000+0  69945-3 0  99912 52445  97.5622 256.7678 0003802 158.2992 201.8433 15.72226370225840

JSON: /api/v1/satellites/52445 · /tle

For live sub-satellite position, see the globe view (requires WebGL).

§ Visibility from observer

Set your observer location to see the next 7 days of passes ≥ 10°. The values pass through the URL so the page stays shareable.

No JS? Fill the form by hand. The geolocation button needs JavaScript.

§ Radio — SatNOGS DB

ModeDescriptionDownlinkUplink
FM Jillin Mysterious Pip 1.616 GHz

1 transmitter · refreshed weekly from db.satnogs.org